This is the latest recevied weather packets stored in our database for station/object DK4DAX-2. If no packets are shown the sender has not sent any weather packets the latest 10 day(s).
| Time | Temp. | Humidity | Pressure | Rain* | Wind** | Luminosity | Snow |
|---|---|---|---|---|---|---|---|
| 1787997604 | 25.56° C | 40% | 1010 hPa | 0 mm | - | - | - |
| 1787996703 | 25.56° C | 41% | 1010.3 hPa | 0 mm | - | - | - |
| 1787995803 | 24.44° C | 43% | 1010.1 hPa | 0 mm | - | - | - |
| 1787994904 | 24.44° C | 42% | 1010.3 hPa | 0 mm | - | - | - |
| 1787994003 | 24.44° C | 44% | 1010 hPa | 0 mm | - | - | - |
| 1787993103 | 25° C | 43% | 1010.5 hPa | 0 mm | - | - | - |
| 1787992203 | 25° C | 44% | 1010.1 hPa | 0 mm | - | - | - |
| 1787991304 | 24.44° C | 45% | 1010.2 hPa | 0 mm | - | - | - |
| 1787990403 | 23.89° C | 49% | 1010.4 hPa | 0 mm | - | - | - |
| 1787989503 | 23.33° C | 51% | 1010.2 hPa | 0 mm | - | - | - |
| 1787988604 | 21.67° C | 57% | 1010.3 hPa | 0 mm | - | - | - |
| 1787987703 | 21.67° C | 59% | 1010 hPa | 0 mm | - | - | - |
| 1787986804 | 19.44° C | 70% | 1010 hPa | 0 mm | - | - | - |
| 1787985903 | 18.89° C | 72% | 1010.1 hPa | 0 mm | - | - | - |
| 1787985003 | 18.33° C | 74% | 1010 hPa | 0 mm | - | - | - |
| 1787984103 | 17.78° C | 76% | 1009.9 hPa | 0 mm | - | - | - |
| 1787983204 | 17.22° C | 77% | 1010 hPa | 0 mm | - | - | - |
| 1787982303 | 17.22° C | 77% | 1009.8 hPa | 0 mm | - | - | - |
| 1787981403 | 17.22° C | 77% | 1009.9 hPa | 0 mm | - | - | - |
| 1787980504 | 16.67° C | 78% | 1009.7 hPa | 0 mm | - | - | - |
| 1787979603 | 16.67° C | 78% | 1009.7 hPa | 0 mm | - | - | - |
| 1787978703 | 16.67° C | 78% | 1009.6 hPa | 0 mm | - | - | - |
| 1787977804 | 16.67° C | 78% | 1009.6 hPa | 0 mm | - | - | - |
| 1787976904 | 16.67° C | 78% | 1009.7 hPa | 0 mm | - | - | - |
| 1787976003 | 16.67° C | 78% | 1009.8 hPa | 0 mm | - | - | - |
* Rain latest hour (hover to see other rain measurements)
** Current wind speed in m/s (hover to see current wind gust speed)